Tracking 35274 objects as of 10-Sep-2026
HD Live streaming from Space Station
objects crossing your sky now

TDO SPACECRAFT


TDO SPACECRAFT is no longer on orbit


NORAD ID: 44482
Int'l Code: 2019-051B
Launch date: August 8, 2019
Source: United States (US)
Launch site: AIR FORCE EASTERN TEST RANGE (AFETR)
Decay date: 2022-12-30
Your satellite tracking list
Your tracking list is empty




NASA's NSSDC Master Catalog

Two Line Element Set (TLE):
1 44482U 19051B   22330.86762463  .00018790 -43931-6  97019-3 0  9991
2 44482  25.7633 189.2628 7226061 250.0563  23.8842  2.38462031 28322
Source of the keplerian elements: AFSPC